This is the latest recevied weather packets stored in our database for station/object KB8TTR. If no packets are shown the sender has not sent any weather packets the latest 10 day(s).
| Time | Temp. | Humidity | Pressure | Rain* | Wind** | Luminosity | Snow |
|---|---|---|---|---|---|---|---|
| 1788422155 | 24.44° C | 92% | 1015.7 hPa | 0 mm | - | 0 W/m² | - |
| 1788421851 | 24.44° C | 92% | 1015.8 hPa | 0 mm | - | 0 W/m² | - |
| 1788421550 | 23.89° C | 92% | 1015.9 hPa | 0 mm | - | 0 W/m² | - |
| 1788421250 | 23.89° C | 91% | 1015.8 hPa | 0 mm | - | 0 W/m² | - |
| 1788420945 | 23.89° C | 89% | 1015.8 hPa | 0 mm | - | 0 W/m² | - |
| 1788420641 | 23.89° C | 89% | 1015.7 hPa | 0 mm | - | 0 W/m² | - |
| 1788420336 | 23.89° C | 88% | 1015.6 hPa | 0 mm | - | 0 W/m² | - |
| 1788420033 | 23.89° C | 86% | 1015.5 hPa | 0 mm | - | 0 W/m² | - |
| 1788419729 | 24.44° C | 85% | 1015.6 hPa | 0 mm | - | 0 W/m² | - |
| 1788419424 | 24.44° C | 85% | 1015.6 hPa | 0 mm | - | 0 W/m² | - |
| 1788419124 | 24.44° C | 84% | 1015.6 hPa | 0 mm | - | 0 W/m² | - |
| 1788418820 | 24.44° C | 84% | 1015.5 hPa | 0 mm | - | 0 W/m² | - |
| 1788418519 | 24.44° C | 85% | 1015.8 hPa | 0 mm | - | 0 W/m² | - |
| 1788418219 | 25° C | 85% | 1015.4 hPa | 0 mm | - | 0 W/m² | - |
| 1788417919 | 25° C | 84% | 1015.6 hPa | 0 mm | - | 0 W/m² | - |
| 1788417615 | 25° C | 84% | 1015.5 hPa | 0 mm | - | 0 W/m² | - |
| 1788417310 | 25.56° C | 83% | 1015.8 hPa | 0 mm | - | 0 W/m² | - |
| 1788417005 | 25.56° C | 81% | 1015.9 hPa | 0 mm | - | 0 W/m² | - |
| 1788416700 | 25.56° C | 81% | 1016 hPa | 0 mm | - | 0 W/m² | - |
| 1788416396 | 26.11° C | 84% | 1015.7 hPa | 0 mm | - | 0 W/m² | - |
| 1788416096 | 26.11° C | 83% | 1015.8 hPa | 0 mm | - | 0 W/m² | - |
| 1788415792 | 26.11° C | 85% | 1015.9 hPa | 0 mm | - | 0 W/m² | - |
| 1788415491 | 26.11° C | 85% | 1016 hPa | 0 mm | - | 0 W/m² | - |
| 1788415190 | 26.11° C | 86% | 1016.3 hPa | 0 mm | - | 0 W/m² | - |
| 1788414889 | 26.11° C | 87% | 1016.1 hPa | 0 mm | - | 0 W/m² | - |
* Rain latest hour (hover to see other rain measurements)
** Current wind speed in m/s (hover to see current wind gust speed)